Theta_e
335 335 335 334 334 334 334 334 334 333 333 333 333 333 333 333 333 334 334 334 335 335 335 334 335 334 334 334 333 332 332 332 332 332 332 330 330 332 331 330 330 329 327 327 327 328 329 329 329 329 328 328 328 328 327 327 328 328 328 328 328 327 327
335 334 335 335 334 334 334 334 333 333 333 332 332 333 333 333 333 333 334 335 336 335 334 334 334 334 335 334 332 333 332 332 332 332 332 330 330 332 331 330 330 328 328 328 327 327 327 329 329 328 327 327 327 327 327 327 327 327 328 328 327 327 327
334 334 335 335 334 334 334 333 333 333 333 333 332 332 333 333 333 333 333 334 335 335 334 334 333 333 334 333 333 333 333 332 332 332 332 330 330 331 331 330 329 328 328 327 327 327 327 327 329 328 327 327 327 327 327 327 327 327 327 327 326 326 326
334 334 334 334 334 333 333 333 333 333 333 332 333 332 332 333 333 334 334 334 335 335 335 334 333 333 334 333 333 333 332 332 332 332 331 331 331 331 330 330 328 328 328 327 326 327 326 326 327 327 326 326 326 327 327 327 326 327 327 326 326 325 325
334 334 334 334 333 333 332 333 333 332 332 332 333 333 333 333 333 333 334 334 334 334 334 334 334 333 333 333 333 332 332 332 332 332 331 331 331 331 330 329 328 328 328 328 327 326 326 326 327 326 325 326 326 326 327 326 326 326 326 325 325 324 324
334 334 334 333 333 333 332 332 332 332 332 333 333 333 333 333 333 333 333 333 333 333 333 333 333 333 333 333 333 332 333 332 332 332 332 331 331 330 330 329 329 329 329 328 327 326 326 326 326 325 324 325 325 325 326 326 326 326 326 325 325 324 323
334 334 333 333 332 332 331 331 332 332 333 332 332 333 333 333 333 333 333 332 332 331 332 333 333 333 333 333 332 333 333 332 331 331 331 331 331 330 330 330 330 330 329 329 328 327 326 326 326 324 324 325 324 324 325 326 326 325 324 325 325 324 323
333 333 333 332 331 331 330 331 332 332 332 332 332 332 332 332 332 332 332 331 330 330 331 332 333 333 333 333 333 333 333 332 331 330 331 331 331 331 330 329 330 329 329 329 329 327 327 326 326 325 324 324 324 324 323 324 325 323 322 323 323 323 323
333 333 333 332 331 330 331 331 332 332 332 332 332 331 331 332 332 331 331 331 330 329 330 332 333 333 333 333 333 333 333 332 332 331 331 330 331 331 330 330 330 329 328 329 329 328 327 327 326 324 324 324 325 325 323 323 321 318 319 321 321 321 322
333 333 332 332 330 330 331 331 332 332 331 331 331 331 331 330 331 330 330 330 330 329 329 331 332 332 333 333 333 333 333 332 332 332 331 330 331 331 330 330 330 329 328 329 330 329 328 327 325 323 324 323 324 324 324 325 321 314 316 319 317 316 318
334 333 332 331 330 330 331 331 331 331 331 331 330 330 330 329 330 330 329 330 329 329 329 330 331 332 332 332 332 332 333 332 332 332 331 330 331 331 330 330 330 330 329 328 329 329 328 327 324 323 324 323 323 323 322 324 321 315 314 316 313 313 313
333 333 332 331 330 331 331 330 331 330 330 330 330 329 329 329 330 330 329 330 329 329 329 329 330 330 330 331 331 332 332 332 332 331 330 331 332 331 330 329 330 330 329 329 329 329 328 326 324 323 323 323 322 322 321 321 319 315 315 315 312 312 312
333 333 332 331 330 331 330 330 330 330 329 330 330 329 329 329 330 329 329 329 329 329 329 329 329 328 329 330 331 331 331 332 332 331 330 331 332 331 330 329 329 329 329 329 328 329 328 326 325 323 323 323 322 322 321 319 317 314 314 315 313 312 312
333 333 331 330 330 331 330 329 329 329 329 329 330 329 329 329 329 328 328 328 329 328 328 328 328 328 328 329 329 330 331 331 331 330 330 330 331 330 330 330 328 328 329 329 328 328 328 327 327 325 323 323 323 322 320 318 316 313 312 313 312 312 312
333 332 331 330 330 331 330 329 328 329 329 329 329 329 328 328 328 327 327 328 328 328 327 327 327 327 328 328 328 329 330 331 331 330 330 331 331 330 329 329 328 327 328 327 327 327 327 327 327 326 324 323 323 322 320 318 316 313 312 312 312 312 311
333 331 331 330 330 330 329 329 328 328 329 329 329 328 328 328 327 326 326 327 327 327 327 326 325 326 327 327 327 328 329 330 330 330 330 331 331 330 329 328 327 327 328 326 325 325 325 325 326 325 324 324 323 323 320 318 316 314 312 311 312 312 311
332 330 330 331 331 330 329 328 328 328 328 328 328 327 327 326 325 325 326 326 326 326 326 325 324 325 326 326 326 326 328 328 328 328 328 330 331 330 329 328 327 327 327 325 325 325 324 324 323 323 323 321 322 321 318 317 317 315 313 312 312 312 312
330 330 331 331 330 330 328 328 328 328 328 328 327 327 326 323 322 323 325 325 325 325 325 324 324 323 323 323 324 324 325 326 326 326 327 328 329 330 329 328 327 327 327 326 325 323 321 321 321 320 320 319 319 319 317 316 317 316 315 314 313 312 312
329 330 330 330 329 329 328 328 328 329 328 327 327 326 325 322 320 322 324 325 325 324 323 324 323 322 321 322 323 323 324 325 326 325 326 328 329 329 329 328 327 327 327 326 324 321 319 320 319 318 319 318 318 318 317 316 316 316 315 315 314 312 312
329 330 329 329 329 329 328 328 328 328 327 327 327 326 325 322 320 321 322 324 324 324 323 322 322 321 320 321 323 323 323 325 325 324 325 327 328 329 329 328 327 326 325 324 322 320 319 319 319 318 318 318 318 317 316 315 315 315 314 314 313 313 313
328 329 328 328 328 328 328 328 328 326 326 327 327 326 325 323 321 320 322 323 324 323 322 322 322 321 320 320 321 321 321 323 324 324 325 327 327 327 327 327 325 323 323 321 320 319 320 319 319 318 319 318 318 317 316 315 314 313 313 313 313 313 312
327 327 327 326 327 327 326 327 326 325 326 327 326 325 325 323 321 320 321 322 322 322 322 322 321 320 319 319 319 319 320 322 323 324 325 326 325 324 324 324 322 321 321 320 319 319 319 319 319 319 319 319 319 319 318 318 316 314 313 313 313 312 312
327 326 326 326 326 326 325 325 326 325 326 326 325 324 324 321 320 319 320 321 322 322 321 321 320 319 318 317 318 319 320 323 324 324 324 325 323 323 322 322 321 321 320 320 320 320 319 319 319 319 319 319 319 319 319 319 319 317 316 316 316 315 313
326 325 325 325 325 325 325 324 325 325 325 324 324 324 322 320 319 319 320 321 321 320 320 320 319 318 317 317 318 319 320 322 323 323 323 323 323 322 321 321 321 320 319 319 319 319 319 320 320 320 320 319 320 320 319 319 320 319 319 319 319 318 317
326 325 325 325 325 325 325 322 322 323 323 322 322 321 320 319 318 319 319 320 319 319 319 319 318 318 317 318 319 319 320 321 322 322 322 323 322 321 320 320 319 319 318 318 317 317 317 318 318 319 319 319 319 318 318 318 318 318 318 318 318 318 318
325 325 326 325 324 324 324 321 321 322 321 321 321 320 319 318 317 318 318 318 318 319 319 319 319 319 318 318 319 319 319 320 321 321 322 322 321 320 319 318 318 317 317 316 316 316 316 316 317 317 318 318 318 318 318 318 318 318 318 318 318 318 318
325 324 324 324 323 323 321 319 320 321 321 320 320 318 317 317 317 317 317 317 317 317 318 319 320 319 319 319 319 319 319 320 320 321 320 320 319 319 318 318 318 319 319 318 318 318 318 318 319 319 319 319 319 320 320 319 319 319 318 318 318 318 319
323 323 322 322 321 320 319 317 318 319 319 319 318 317 316 316 316 316 316 316 316 316 316 316 317 319 319 319 319 319 319 320 320 321 321 320 320 320 319 319 320 320 320 320 320 320 320 321 321 320 321 321 321 321 320 320 319 319 319 319 318 319 319
320 321 320 320 319 318 317 316 316 317 317 317 316 315 315 315 315 315 315 315 316 316 315 315 316 317 317 318 319 319 319 320 320 321 321 320 320 320 320 320 319 318 317 318 320 320 320 320 320 321 321 321 321 321 320 320 320 319 319 319 319 319 319
315 317 317 317 317 316 315 315 314 314 314 314 313 313 313 312 312 313 313 314 315 315 315 316 316 316 316 316 316 316 317 318 319 320 320 320 320 320 320 319 317 317 317 318 319 319 317 317 318 320 319 319 319 319 319 319 319 319 318 317 317 317 317
311 312 313 313 313 311 311 311 311 311 311 310 310 310 310 309 309 309 310 311 312 313 314 314 316 316 316 315 314 314 315 317 318 318 318 319 319 319 319 319 318 318 319 319 318 318 317 317 317 317 316 316 315 315 314 314 315 315 314 313 312 311 310
311 310 309 310 310 310 309 309 308 308 308 307 306 306 307 307 306 306 306 306 308 309 310 311 313 315 315 315 314 313 314 314 314 313 314 316 317 317 318 318 317 317 317 316 316 316 315 315 315 314 313 312 311 309 308 307 306 306 306 305 304 303 302
311 310 309 309 309 309 310 310 310 309 308 307 306 306 306 306 305 304 304 304 304 306 307 307 309 311 313 313 313 313 313 313 313 313 313 314 315 314 313 314 313 312 312 312 312 312 312 311 311 311 311 309 307 305 302 300 299 299 299 299 299 301 303
309 310 311 311 310 310 310 311 312 311 310 309 308 307 307 307 306 304 303 303 303 303 303 304 305 307 309 310 311 312 312 311 311 312 311 311 311 309 309 309 309 309 309 309 309 309 308 308 306 306 305 303 301 299 298 297 297 298 298 299 302 306 308
307 308 309 310 311 310 310 311 311 311 310 309 308 307 305 304 303 302 301 301 301 300 300 301 301 302 303 305 307 309 310 309 309 309 309 308 307 307 306 306 306 306 307 306 305 303 303 301 300 299 299 298 297 297 297 297 298 299 301 303 306 308 309
305 305 306 307 307 307 308 309 309 308 308 307 305 304 302 302 301 301 300 300 299 299 299 299 299 299 300 300 301 302 303 304 305 306 306 305 303 302 302 302 302 301 301 300 300 300 300 301 301 301 301 301 301 300 300 301 301 301 303 306 308 308 307
304 305 305 305 306 306 306 306 306 306 306 305 303 302 301 301 301 301 300 300 299 298 298 298 298 298 298 299 299 299 300 300 300 301 301 300 299 299 298 298 298 298 298 299 301 302 303 303 303 304 304 304 304 304 304 304 303 303 305 307 307 306 305
Wind_Speed
26 24 24 23 21 20 19 19 18 17 16 15 14 14 13 14 13 13 14 15 16 15 16 19 19 19 20 19 17 18 21 21 23 25 22 25 24 13 13 13 6 9 18 15 12 11 6 2 4 6 7 9 9 9 9 10 10 10 9 9 10 10 9
25 23 24 23 21 20 19 18 18 17 16 14 14 14 14 15 14 13 13 15 16 16 16 17 18 18 19 19 17 18 20 20 22 24 23 27 26 16 14 12 8 15 16 11 15 16 9 5 4 4 6 8 8 9 9 9 9 9 9 10 10 9 8
20 19 20 21 21 20 19 18 18 17 16 16 15 15 15 16 16 13 13 15 17 16 15 16 17 18 19 19 18 18 18 19 21 22 22 27 25 18 15 14 16 20 14 9 14 15 10 6 4 5 9 9 7 8 9 10 10 10 11 12 10 8 7
18 17 18 18 19 20 19 19 19 18 17 17 16 16 17 17 16 13 13 15 16 16 16 16 17 18 18 19 18 17 17 18 20 20 21 24 23 18 16 16 21 23 17 14 18 18 14 9 6 7 10 11 10 10 11 11 12 12 13 12 10 8 8
19 18 18 18 19 19 19 20 20 19 17 16 16 18 19 18 16 15 15 15 16 17 17 17 18 18 17 18 18 17 17 17 18 19 21 21 20 18 16 17 21 23 19 19 23 23 19 17 15 9 10 12 9 8 12 13 12 14 14 13 10 9 9
19 19 18 19 19 19 20 21 21 19 18 18 20 21 20 19 18 17 17 17 17 16 16 17 19 18 18 19 18 17 16 16 17 19 20 19 18 18 17 18 20 19 17 18 21 22 20 22 21 13 11 13 8 8 12 13 13 13 14 14 11 9 10
19 20 19 18 19 20 21 22 21 20 20 22 23 22 20 19 19 18 17 16 16 16 16 18 19 18 18 19 18 17 16 15 16 18 18 18 18 18 16 16 18 18 16 15 19 22 21 23 23 18 14 10 8 10 11 12 14 12 12 14 13 11 10
20 20 19 18 19 21 22 22 21 20 22 23 22 20 19 20 20 19 18 17 16 17 17 17 19 19 18 18 17 17 16 15 15 16 17 18 18 18 16 15 17 17 16 16 19 21 21 22 25 25 21 11 5 7 8 10 13 11 11 14 14 14 12
19 20 20 19 20 21 21 21 20 21 24 23 21 21 20 20 20 19 18 17 17 16 16 17 19 19 18 17 16 17 17 15 15 15 16 17 17 16 15 15 15 16 15 18 21 20 20 22 25 28 27 20 11 6 4 6 8 7 12 15 14 14 13
19 20 21 21 21 21 19 19 21 24 25 23 22 22 21 21 20 19 18 18 17 16 15 16 18 19 18 16 16 18 17 15 14 14 15 16 16 15 15 15 15 15 15 18 20 19 20 22 25 28 29 26 20 11 4 4 5 7 13 16 13 13 14
19 19 20 21 22 21 18 20 24 25 24 23 23 22 21 21 20 18 18 18 17 16 16 16 17 17 17 16 16 17 17 15 14 13 14 16 16 15 15 15 14 14 15 17 18 18 20 23 25 29 28 24 19 15 12 7 4 10 17 17 13 13 15
18 18 20 21 23 20 18 23 26 24 23 24 22 22 21 21 21 20 19 19 17 17 16 16 16 16 15 15 16 17 17 15 14 13 14 16 16 14 14 14 14 14 15 15 17 19 21 22 23 27 27 23 17 14 18 15 6 10 20 20 16 14 15
18 18 20 22 23 21 20 24 26 24 24 25 23 23 22 22 22 21 20 19 18 18 17 16 16 15 14 15 16 17 16 15 14 13 14 16 15 14 15 15 14 15 15 15 17 20 22 23 22 24 25 24 19 13 16 18 10 9 19 22 18 15 15
19 19 21 23 23 22 21 24 25 25 26 26 25 25 23 22 22 21 19 19 19 19 18 17 16 15 16 16 16 16 15 15 14 14 14 16 15 15 16 15 14 16 16 15 16 18 21 22 22 24 24 24 24 18 17 19 13 10 14 18 17 15 15
20 20 21 23 23 23 23 24 25 27 28 27 26 25 23 24 23 21 20 19 19 18 17 17 17 16 17 17 16 16 16 15 15 15 15 15 15 15 16 16 15 16 16 14 13 14 16 18 20 25 25 24 26 23 21 22 18 14 15 16 17 17 17
20 21 21 22 23 24 25 25 27 29 29 27 25 23 23 24 23 21 21 19 18 18 18 16 16 16 17 17 16 17 16 16 15 15 15 15 16 16 16 16 16 16 15 14 13 11 13 15 17 21 22 21 25 25 23 25 22 18 17 16 17 19 20
20 21 21 21 23 26 26 26 28 30 29 27 25 23 24 22 21 22 22 19 18 19 19 17 15 15 15 14 16 17 17 16 16 15 15 15 17 17 17 17 16 16 15 15 13 10 11 12 12 15 17 16 19 22 24 26 23 21 20 19 20 22 21
19 21 22 23 25 28 28 28 29 30 29 27 25 25 24 20 19 21 21 18 18 18 17 17 15 14 12 12 14 17 18 17 16 15 14 15 17 17 17 16 17 16 15 14 11 7 7 9 9 11 14 12 13 19 23 22 21 20 20 21 22 22 21
22 24 24 25 28 29 29 29 30 30 29 27 26 26 23 20 19 20 20 18 17 16 15 16 16 14 12 11 13 16 19 18 16 14 13 14 16 17 16 16 16 15 13 11 10 8 6 6 9 13 15 13 15 20 21 20 20 18 18 20 22 22 22
24 26 25 27 30 30 31 32 31 31 29 26 26 26 22 20 21 21 20 19 17 16 15 16 18 16 12 12 14 16 17 18 16 13 13 14 15 16 16 16 15 13 10 8 10 11 9 8 10 13 14 13 14 17 18 18 19 18 18 19 20 21 23
24 24 23 25 28 29 32 33 32 30 28 26 26 25 23 22 23 22 21 19 18 18 17 17 18 16 13 13 14 12 12 14 15 14 13 13 13 14 15 15 12 10 10 11 12 12 9 8 9 11 14 14 14 14 15 15 17 19 18 18 19 21 21
24 24 22 23 25 27 29 29 30 29 26 26 27 25 23 23 23 23 21 19 19 19 18 18 18 15 13 13 12 9 9 14 17 17 16 16 15 14 14 13 12 11 12 13 12 11 10 9 9 11 12 12 12 13 12 11 13 17 17 16 16 18 18
24 23 23 23 24 28 27 24 27 28 25 26 28 25 24 23 23 23 21 20 20 19 17 18 18 16 13 12 12 10 10 16 20 19 19 18 17 15 13 13 13 13 13 12 11 10 10 9 9 10 9 8 9 10 10 10 8 10 12 11 10 13 15
23 22 22 24 24 28 26 20 24 29 27 26 27 25 24 24 23 23 22 21 21 19 18 19 19 17 14 12 13 12 13 19 22 20 20 19 18 17 16 15 15 14 12 12 11 10 10 9 9 8 7 6 6 6 6 7 7 6 6 7 5 5 7
24 23 22 24 25 27 24 20 24 30 28 27 28 26 25 25 24 25 24 23 22 20 19 19 19 18 16 14 13 14 17 20 21 20 20 20 19 18 18 17 16 14 13 12 11 10 9 9 8 7 6 5 4 3 3 3 3 2 1 1 1 1 2
24 24 23 23 24 27 25 22 26 31 29 28 27 26 27 27 27 27 26 25 24 22 20 19 18 18 16 14 14 15 17 19 20 20 21 22 21 20 19 18 16 14 12 11 10 10 9 9 7 6 5 4 3 3 3 3 3 3 3 2 3 4 4
24 23 23 23 24 26 25 22 27 31 30 29 29 29 29 29 28 28 27 26 25 24 22 20 18 18 17 15 15 15 16 18 19 20 20 21 20 19 18 18 16 14 13 12 11 11 10 9 7 5 4 3 3 2 2 2 3 3 3 4 5 5 5
24 23 23 23 24 26 25 23 28 32 31 31 31 31 31 30 29 27 26 26 26 24 22 20 19 20 19 18 18 18 19 20 20 20 20 20 19 18 17 16 15 14 12 11 11 10 8 7 5 3 2 1 1 3 4 5 5 5 5 6 7 8 8
22 24 26 27 27 28 27 26 28 31 32 33 33 32 31 29 28 26 25 25 25 23 20 19 19 20 20 20 20 21 21 22 22 22 21 20 18 17 15 13 12 11 8 7 8 7 5 4 3 2 1 1 2 3 5 5 6 6 6 7 8 9 10
21 24 26 28 28 28 28 29 29 30 33 34 33 32 30 28 26 25 24 23 23 22 19 17 18 19 19 19 18 19 19 20 21 21 20 18 16 15 14 12 11 11 10 8 7 5 4 4 4 3 2 1 2 3 4 5 6 6 7 8 8 9 10
21 23 24 26 27 26 26 28 30 31 32 34 33 32 30 28 26 24 23 22 21 21 19 16 15 17 18 18 18 18 19 19 19 16 13 13 13 13 13 13 12 12 13 11 8 7 6 5 6 5 3 2 3 4 6 7 8 8 9 9 10 11 12
22 24 25 25 26 26 26 27 29 30 32 33 33 32 31 30 27 25 23 22 20 20 19 17 14 14 15 16 17 18 18 18 16 11 7 9 11 11 13 14 12 11 11 10 8 7 5 4 4 4 3 3 4 6 8 9 10 11 11 12 12 12 12
23 24 24 24 25 26 27 27 27 28 29 30 30 30 30 30 29 26 23 22 20 19 18 17 15 14 14 13 14 15 16 17 18 17 15 14 14 13 12 12 10 8 7 6 5 3 2 1 2 1 2 3 5 7 9 10 10 9 9 9 9 9 8
25 24 23 22 22 22 23 24 24 24 24 24 25 26 26 27 27 26 23 22 21 20 18 16 15 13 13 13 13 14 16 18 19 19 18 17 14 12 10 8 6 5 3 2 1 1 2 3 4 4 4 5 6 7 8 7 5 5 5 5 5 6 6
25 25 24 24 23 22 21 21 20 21 22 23 24 26 26 26 27 27 25 23 22 21 19 17 16 14 13 13 12 12 14 15 14 13 14 13 11 9 7 5 3 2 0 1 2 3 3 3 3 3 4 4 3 3 3 3 3 4 5 5 6 7 7
22 22 21 23 25 24 22 21 20 20 22 24 27 28 28 28 28 28 26 23 22 21 19 17 16 15 14 13 13 12 13 13 11 10 11 11 9 7 5 3 1 1 1 2 2 3 4 5 5 6 7 6 5 4 3 2 3 5 6 6 7 8 9
21 20 18 19 20 21 20 21 20 20 21 25 28 28 26 27 27 26 24 22 21 19 18 16 16 15 14 14 13 13 13 13 11 9 9 9 8 6 5 4 3 3 4 5 6 6 6 7 8 9 9 8 7 5 5 4 5 6 8 8 9 10 11
Wind_Direction
190 190 196 202 203 203 203 203 203 206 211 214 213 208 198 189 182 178 179 176 174 179 184 184 182 182 183 186 192 195 193 192 187 184 186 186 187 197 201 205 237 189 170 166 164 153 136 128 144 159 181 181 177 180 180 175 177 179 177 181 190 196 198
192 190 193 197 200 200 199 201 203 204 204 205 203 196 186 181 178 176 177 177 181 185 186 187 186 184 187 188 191 195 196 196 196 194 190 187 191 195 191 194 176 159 160 164 160 149 136 140 145 150 165 169 173 176 179 182 180 178 179 186 193 193 191
189 189 189 193 196 196 197 200 198 195 193 191 191 188 186 185 181 179 180 184 189 189 186 185 184 183 187 190 193 196 199 199 197 198 197 192 194 199 195 186 160 152 150 148 156 151 138 136 133 147 160 163 165 171 177 179 178 178 178 183 185 178 173
190 187 186 189 192 194 196 195 192 190 187 188 191 191 191 187 183 182 185 188 191 190 187 183 182 186 190 192 194 196 198 201 197 197 198 195 197 199 199 193 174 168 167 165 167 162 151 144 137 146 163 163 160 165 173 174 173 173 174 178 176 164 161
196 194 190 188 191 194 194 192 191 189 189 193 193 188 185 183 181 181 181 182 183 183 185 187 188 191 193 192 193 193 196 200 199 198 196 194 196 196 197 197 186 180 180 177 175 171 165 158 151 148 160 159 154 163 172 171 169 172 175 180 175 162 162
201 200 197 193 194 195 193 192 191 190 192 190 184 179 178 181 181 179 178 177 179 181 185 189 191 190 190 190 191 193 196 198 200 201 200 197 198 198 195 195 191 187 187 186 182 178 170 158 152 147 155 159 152 157 170 172 170 173 180 186 183 172 170
204 202 201 200 197 193 193 192 190 191 190 182 178 178 179 181 182 179 179 179 180 183 185 188 190 187 188 190 193 196 195 196 200 202 205 204 202 201 197 196 197 196 196 196 190 183 174 164 158 153 150 153 147 152 165 175 172 173 184 197 201 193 184
207 204 204 203 197 194 192 190 189 191 187 180 178 180 180 181 182 181 182 180 175 176 181 187 190 189 189 190 194 197 194 194 196 197 202 203 201 202 200 198 200 202 205 203 195 191 184 176 170 163 155 146 137 153 164 172 175 182 191 196 204 204 198
206 204 203 200 196 194 191 189 188 185 180 178 178 179 180 181 181 181 182 179 173 172 177 185 190 189 188 188 190 194 193 193 193 194 198 199 200 202 202 200 199 200 202 198 194 195 194 186 178 171 165 159 155 158 164 166 169 185 195 191 193 204 205
206 204 202 197 194 192 190 192 189 179 176 176 176 177 178 177 176 177 179 178 173 172 173 178 185 187 185 186 186 189 192 194 196 198 200 199 199 201 201 200 199 195 192 191 193 197 197 191 182 177 175 171 163 154 151 177 174 178 189 192 190 195 200
203 205 202 194 189 187 188 192 187 180 180 178 175 176 177 177 176 175 176 175 171 170 170 173 179 181 182 185 186 188 192 195 198 201 203 200 196 198 199 199 199 196 190 191 196 197 194 192 186 182 182 180 172 162 158 165 188 189 188 192 195 191 190
198 202 199 191 188 186 186 188 185 182 183 179 175 177 178 177 176 173 172 173 172 170 169 172 174 174 177 183 187 190 194 196 197 197 201 200 197 196 197 196 197 194 189 189 193 194 192 191 188 186 188 191 189 179 169 161 164 201 195 194 199 197 189
195 200 197 189 187 186 187 187 184 179 179 179 177 176 175 173 172 171 173 176 176 173 172 176 175 172 174 179 184 189 192 194 195 195 196 198 199 196 193 192 192 191 190 188 188 192 194 194 193 192 193 197 199 198 185 173 165 189 198 199 202 201 192
194 198 197 190 187 187 188 188 183 178 179 179 177 175 174 174 171 172 174 175 174 173 175 176 174 173 172 172 175 181 184 188 192 194 193 197 200 195 193 193 190 190 193 191 189 194 197 199 202 202 202 203 203 206 201 189 175 167 185 200 207 202 192
196 197 196 193 190 188 187 186 182 180 178 177 178 177 176 174 171 171 174 174 174 176 177 175 174 174 171 170 172 174 177 183 188 191 192 196 198 196 196 196 190 191 196 193 191 192 194 198 203 205 205 208 210 213 208 197 184 169 176 195 206 199 191
197 195 194 195 194 189 183 182 182 179 176 177 179 178 175 174 174 174 174 174 176 176 175 174 173 174 173 172 173 174 177 183 186 190 191 193 195 196 198 197 193 193 193 193 196 191 189 194 198 202 207 215 223 223 211 199 192 180 176 186 199 197 190
198 194 194 196 195 189 182 179 180 178 176 177 178 174 173 174 174 175 174 171 171 172 174 174 172 174 178 179 179 180 182 186 189 192 192 192 195 196 196 193 192 192 188 189 198 192 188 197 203 208 213 221 231 221 199 194 197 190 180 182 193 198 195
197 197 198 194 191 187 181 178 178 178 176 176 175 173 171 168 167 170 171 168 168 170 172 176 175 172 172 179 188 190 188 188 191 195 195 195 195 193 192 191 189 189 186 186 189 178 183 206 209 200 197 200 206 199 190 193 201 196 189 190 193 197 200
195 201 204 192 185 184 180 178 177 176 175 174 175 175 169 163 161 164 167 169 170 168 168 173 176 168 156 159 172 178 182 185 187 190 191 192 191 189 189 190 187 186 187 184 176 156 146 172 177 172 173 178 186 190 192 197 200 199 198 197 195 196 201
195 201 206 192 182 181 177 175 173 172 172 174 177 175 168 165 167 165 166 170 171 172 170 169 171 168 157 152 154 159 170 180 181 181 184 184 187 189 187 185 182 183 186 176 163 156 142 139 154 162 165 168 176 185 190 193 196 198 200 198 196 197 203
197 202 206 191 180 176 171 170 170 171 172 173 175 173 170 172 173 169 168 170 173 177 175 168 170 172 163 158 160 157 162 175 177 175 175 173 175 180 177 173 171 169 165 155 151 150 144 137 140 148 156 161 163 171 179 187 195 197 198 199 199 201 207
198 199 201 192 181 173 169 168 169 170 172 173 174 174 172 173 173 170 168 169 173 178 175 170 171 173 166 164 171 168 163 173 174 169 165 161 160 164 162 156 152 146 141 143 142 136 131 134 136 134 140 149 151 152 159 174 192 197 197 197 200 205 209
196 193 191 189 181 172 172 174 170 168 172 173 173 172 169 167 168 169 168 167 171 175 175 173 172 171 167 167 172 168 162 170 170 165 164 164 161 161 158 148 142 140 138 139 138 134 129 133 141 139 134 137 138 137 137 139 153 178 186 184 191 205 210
190 186 183 186 182 171 174 182 171 165 166 166 165 165 163 161 162 164 163 162 164 166 168 170 170 168 167 166 165 158 158 169 172 169 170 169 163 158 154 146 143 142 140 136 132 134 133 132 139 142 138 132 124 121 125 123 122 137 151 144 142 179 201
180 179 177 182 183 173 172 178 167 159 157 156 156 156 157 157 156 156 156 154 153 152 155 160 163 165 168 169 165 154 152 162 170 171 171 168 162 156 149 144 143 143 140 135 128 124 123 122 126 127 127 124 112 94 82 78 77 72 83 95 80 301 296
170 173 173 178 180 170 166 170 162 154 152 153 152 151 151 152 150 149 150 147 143 141 142 146 153 161 167 173 174 164 153 154 159 162 162 159 156 154 150 147 146 144 142 142 136 125 117 112 109 105 98 88 77 70 54 39 30 15 5 351 320 309 314
163 167 166 170 170 162 159 161 154 150 150 150 150 148 147 147 145 144 144 142 137 134 132 133 139 148 155 161 167 163 151 147 149 152 153 152 151 151 149 148 146 140 137 139 137 130 121 114 107 101 90 70 48 30 354 329 325 321 314 312 311 309 307
154 155 153 154 152 147 148 148 142 143 146 146 145 144 142 142 140 138 137 137 136 132 129 129 131 135 139 143 149 149 143 138 136 137 139 141 143 144 144 143 140 132 125 124 126 127 127 126 126 126 111 59 345 322 315 315 320 320 314 311 310 312 313
133 139 142 142 140 139 142 140 137 139 141 140 139 138 136 135 135 132 131 134 134 130 128 131 133 132 133 136 137 136 134 133 133 134 136 139 141 141 140 141 137 128 123 122 123 129 148 158 168 192 210 299 305 299 301 309 316 318 320 319 316 314 315
107 122 129 130 131 134 136 136 135 136 135 133 132 131 129 126 126 127 126 127 128 126 123 128 136 138 138 140 139 134 131 131 132 133 135 138 140 138 135 138 141 142 151 155 149 158 189 212 217 215 220 260 282 295 300 301 300 301 307 311 310 309 308
86 100 109 114 120 124 126 128 131 131 129 126 124 124 123 119 115 115 116 116 119 119 114 115 129 140 144 147 147 142 137 131 125 122 121 124 130 133 133 136 139 145 153 156 160 173 189 203 207 201 204 246 289 309 307 300 295 293 295 297 298 300 301
74 80 89 99 110 115 116 117 121 123 119 117 116 116 118 114 108 104 104 104 107 110 107 105 112 125 137 145 148 146 144 139 134 136 145 142 137 136 137 138 138 142 147 149 155 168 177 189 200 197 208 255 298 310 308 309 310 306 302 301 303 307 310
78 78 81 88 97 107 112 112 111 111 110 109 108 108 110 109 104 99 97 96 96 98 100 100 102 110 119 128 138 144 144 143 143 146 150 149 144 136 133 136 140 141 144 145 150 161 181 238 273 263 263 287 303 304 305 310 314 315 317 319 324 332 333
81 84 86 89 90 95 103 108 109 109 109 108 106 104 103 104 102 98 96 95 92 91 94 97 100 106 113 116 123 132 131 130 134 138 137 136 137 133 128 131 138 139 137 141 141 303 309 309 307 305 308 312 310 305 308 313 316 327 338 347 1 11 10
78 86 91 96 96 92 92 99 106 110 111 110 108 104 102 102 101 99 97 97 95 93 94 96 98 102 109 115 120 127 128 125 129 137 137 133 132 130 125 126 131 129 104 359 342 331 330 333 336 344 355 357 348 335 332 334 349 10 18 22 30 32 30
73 80 87 95 101 100 98 100 104 107 111 111 108 105 104 104 102 99 97 97 96 95 93 93 94 93 95 101 107 115 123 126 129 139 140 132 126 122 122 129 133 70 32 40 53 60 63 61 60 62 64 67 66 63 61 51 35 37 39 39 43 42 35
67 68 73 84 94 98 103 106 105 106 110 112 109 106 106 107 104 102 100 99 98 97 95 92 90 88 86 88 92 97 106 113 118 124 127 122 117 117 121 126 124 114 106 102 101 98 88 79 77 78 80 81 80 80 79 69 57 55 55 56 57 49 37